Content
SEND FEEDBACK

Daily
Averages
Monthly
Summary
United States of America

DIBOLL, TEXAS


Home > North America > United States > Texas
Elevation: 264 feet     Latitude: 31 14N     Longitude: 094 45W

WEATHER
 
SELECT A DAY
Number of Records: 213,029;   Date Range: 1/1/95 - 8/12/14
 
SHARE

PRINT THIS DATA

[ ← Previous Day ]
WEATHER ALMANAC - JANUARY 23, 2013
[ Next Day → ]
[ °C ]   °F
Weather ElementAverageHighLow
Temperature53.3 °F73.9 °F (1:53 pm)42.8 °F (6:26 am)
Dewpoint46.9 °F55.4 °F (10:33 am)39.2 °F (3:17 am)
Humidity81.1 %94 % (9:04 am)41 % (1:53 pm)
Barometer30.30 in30.36 in (10:08 am)30.22 in (5:53 pm)
Wind Speed3.4 mph11.5 mph (11:53 am)
Weather ElementAverage
Visibility4.2 mi
Wind DirectionESE (97 °)

Weather ElementTotal
Precipitation---
Heating Degree Days6.7 (Base 65)
Growing Degree Days8.4 (Base 50)
Averaged from 47 records on January 23, 2013
WEATHER CONDITIONS BREAKOUT
WIND DIRECTION BREAKOUT
WEATHER BY HOUR - JANUARY 23, 2013
[ °C ]   °F
Local TimeTemperatureDewpointHumidityBarometerVisibilityWind DirectionWind SpeedGust SpeedPrecipitationEventsConditions
1:53 AM48.0 °F44.1 °F86 %30.29 in8.0 miSSE (160°)3.5 mphPartly Cloudy
2:43 AM46.4 °F42.8 °F87 %30.29 in1.2 miSE (130°)3.5 mphClear
2:51 AM44.6 °F42.8 °F93 %30.29 in0.5 miSE (140°)3.5 mphFogFog
2:53 AM45.0 °F42.1 °F90 %30.29 in0.5 miSE (130°)3.5 mphFogFog
3:10 AM44.6 °F41.0 °F87 %30.29 in2.5 miSE (130°)3.5 mphClear
3:17 AM44.6 °F39.2 °F81 %30.29 in5.0 miCalmClear
3:53 AM48.0 °F44.1 °F86 %30.29 in5.0 miCalmClear
4:24 AM44.6 °F42.8 °F93 %30.29 in1.5 miSE (130°)3.5 mphClear
4:32 AM44.6 °F41.0 °F87 %30.29 in0.5 miCalmFogFog
4:39 AM44.6 °F41.0 °F87 %30.29 in2.0 miCalmClear
4:46 AM44.6 °F41.0 °F87 %30.29 in4.0 miCalmClear
4:53 AM46.0 °F42.1 °F86 %30.29 in4.0 miCalmClear
5:11 AM46.4 °F42.8 °F87 %30.30 in1.8 miCalmClear
5:19 AM44.6 °F42.8 °F93 %30.30 in0.2 miCalmFogFog
5:41 AM46.4 °F42.8 °F87 %30.30 in0.5 miCalmFogFog
5:53 AM46.0 °F43.0 °F89 %30.30 in0.5 miCalmFogFog
6:07 AM44.6 °F42.8 °F93 %30.31 in1.2 miCalmClear
6:16 AM44.6 °F42.8 °F93 %30.31 in0.5 miCalmFogFog
6:26 AM42.8 °F41.0 °F93 %30.31 in2.0 miCalmPartly Cloudy
6:32 AM42.8 °F39.2 °F87 %30.32 in1.0 miCalmMist
6:39 AM44.6 °F39.2 °F81 %30.32 in0.5 miCalmFogFog
6:48 AM44.6 °F42.8 °F93 %30.32 in0.2 miCalmFogFog
6:53 AM45.0 °F43.0 °F93 %30.32 in0.2 miCalmFogFog
7:03 AM46.4 °F42.8 °F87 %30.33 in0.2 miCalmFogFog
7:53 AM48.9 °F46.0 °F90 %30.33 in0.2 miCalmFogFog
8:53 AM52.0 °F50.0 °F93 %30.34 in0.2 miSouth (170°)8.1 mphFogFog
9:04 AM53.6 °F51.8 °F94 %30.34 in0.2 miSouth (180°)6.9 mphFogFog
9:53 AM55.0 °F53.1 °F93 %30.35 in0.2 miSouth (170°)5.8 mphFogFog
10:08 AM55.4 °F53.6 °F94 %30.36 in0.5 miSouth (190°)5.8 mphFogFog
10:24 AM57.2 °F53.6 °F88 %30.36 in1.8 miSouth (180°)4.6 mphOvercast
10:33 AM57.2 °F55.4 °F94 %30.36 in2.5 miSouth (170°)4.6 mphOvercast
10:40 AM57.2 °F55.4 °F94 %30.36 in4.0 miVariable3.5 mphOvercast
10:53 AM59.0 °F55.0 °F87 %30.36 in6.0 miSouth (190°)4.6 mphMostly Cloudy
11:06 AM62.6 °F55.4 °F77 %30.36 in9.0 miVariable3.5 mphScattered Clouds
11:53 AM69.1 °F54.0 °F58 %30.32 in10.0 miSSW (200°)11.5 mphClear
12:53 PM72.0 °F52.0 °F49 %30.29 in10.0 miWSW (250°)9.2 mphClear
1:53 PM73.9 °F48.9 °F41 %30.25 in10.0 miSW (230°)10.4 mphClear
2:53 PM73.9 °F50.0 °F43 %30.24 in10.0 miSouth (190°)10.4 mphClear
3:53 PM73.9 °F48.9 °F41 %30.24 in10.0 miSSW (200°)6.9 mphClear
4:53 PM72.0 °F48.9 °F44 %30.23 in10.0 miSSW (200°)6.9 mphClear
5:53 PM66.9 °F50.0 °F54 %30.22 in10.0 miSSW (200°)4.6 mphClear
6:53 PM60.1 °F48.9 °F67 %30.22 in10.0 miSSE (150°)4.6 mphClear
7:53 PM63.0 °F52.0 °F67 %30.22 in10.0 miSouth (170°)5.8 mphClear
8:53 PM62.1 °F53.1 °F72 %30.22 in10.0 miSouth (180°)5.8 mphClear
9:53 PM60.1 °F54.0 °F80 %30.23 in10.0 miSouth (170°)4.6 mphClear
10:53 PM57.9 °F53.1 °F84 %30.24 in10.0 miSouth (170°)4.6 mphClear
11:53 PM59.0 °F54.0 °F83 %30.23 in10.0 miSouth (180°)5.8 mphClear
Hourly data recorded from KLFK, located miles away from Diboll, Texas







STORIES FROM OUR PARTNERS